TimeCDT,TemperatureF,Dew PointF,Humidity,Sea Level PressureIn,VisibilityMPH,Wind Direction,Wind SpeedMPH,Gust SpeedMPH,PrecipitationIn,Events,Conditions,WindDirDegrees,DateUTC
12:53 AM,73.0,72.0,96,29.73,10.0,SE,6.9,-,0.00,,Clear,130,2012-10-01 05:53:00
1:22 AM,73.4,71.6,94,29.74,10.0,SE,10.4,-,N/A,,Partly Cloudy,140,2012-10-01 06:22:00
1:53 AM,73.9,72.0,93,29.71,10.0,SE,10.4,-,0.00,,Mostly Cloudy,140,2012-10-01 06:53:00
2:53 AM,73.9,72.0,93,29.69,10.0,SSE,11.5,-,N/A,,Overcast,160,2012-10-01 07:53:00
3:13 AM,73.4,73.4,100,29.70,10.0,SSE,9.2,-,N/A,,Overcast,150,2012-10-01 08:13:00
3:24 AM,73.4,73.4,100,29.69,10.0,SSE,11.5,-,0.00,Rain,Light Rain,160,2012-10-01 08:24:00
3:53 AM,73.9,73.0,97,29.67,10.0,SSE,9.2,-,0.00,Rain,Light Rain,150,2012-10-01 08:53:00
4:53 AM,75.0,73.0,94,29.67,10.0,SSE,11.5,-,0.01,,Overcast,150,2012-10-01 09:53:00
5:22 AM,75.2,73.4,94,29.69,10.0,SSE,11.5,-,0.00,,Mostly Cloudy,160,2012-10-01 10:22:00
5:53 AM,75.0,73.0,94,29.68,10.0,SSE,17.3,-,0.01,Rain,Light Rain,160,2012-10-01 10:53:00
7:05 AM,75.2,73.4,94,29.69,2.5,SSE,10.4,-,0.05,Rain,Light Rain,150,2012-10-01 12:05:00
7:09 AM,75.2,73.4,94,29.69,1.5,SSE,12.7,-,0.10,Rain,Heavy Rain,150,2012-10-01 12:09:00
7:28 AM,75.2,73.4,94,29.69,3.0,South,12.7,20.7,0.20,Rain,Light Rain,170,2012-10-01 12:28:00
7:53 AM,75.0,73.0,94,29.67,3.0,SSE,12.7,-,0.24,Rain,Heavy Rain,160,2012-10-01 12:53:00
8:47 AM,75.2,73.4,94,29.71,10.0,SSE,11.5,-,0.06,Rain,Light Rain,160,2012-10-01 13:47:00
8:53 AM,75.0,73.0,94,29.70,5.0,SSE,11.5,-,0.08,Rain,Light Rain,160,2012-10-01 13:53:00
9:00 AM,75.2,73.4,94,29.71,4.0,SSE,10.4,-,0.03,Rain,Heavy Rain,160,2012-10-01 14:00:00
9:06 AM,75.2,73.4,94,29.72,1.8,SSE,16.1,23.0,0.14,Rain,Heavy Rain,160,2012-10-01 14:06:00
9:09 AM,75.2,73.4,94,29.72,0.8,South,17.3,29.9,0.30,Rain,Heavy Rain,190,2012-10-01 14:09:00
9:21 AM,75.2,73.4,94,29.72,2.5,South,13.8,20.7,0.41,Rain,Heavy Rain,170,2012-10-01 14:21:00
9:24 AM,75.2,73.4,94,29.72,3.0,South,13.8,-,0.41,Rain,Heavy Rain,190,2012-10-01 14:24:00
9:35 AM,75.2,71.6,89,29.72,5.0,South,12.7,-,0.44,Rain,Rain,190,2012-10-01 14:35:00
9:43 AM,75.2,73.4,94,29.72,10.0,South,9.2,-,0.44,Rain,Light Rain,170,2012-10-01 14:43:00
9:53 AM,75.0,73.0,94,29.71,10.0,South,12.7,-,0.44,Rain,Light Rain,170,2012-10-01 14:53:00
10:08 AM,75.2,73.4,94,29.72,6.0,South,10.4,-,0.02,Rain,Rain,170,2012-10-01 15:08:00
10:34 AM,73.4,71.6,94,29.72,3.0,SSW,11.5,24.2,0.15,Rain,Heavy Rain,200,2012-10-01 15:34:00
10:50 AM,73.4,71.6,94,29.73,2.5,SSW,18.4,24.2,0.24,Rain,Heavy Rain,210,2012-10-01 15:50:00
10:53 AM,73.0,70.0,90,29.71,1.5,SSW,16.1,24.2,0.28,Rain,Heavy Rain,200,2012-10-01 15:53:00
10:56 AM,71.6,69.8,94,29.72,1.2,South,17.3,24.2,0.02,Rain,Heavy Rain,190,2012-10-01 15:56:00
11:02 AM,71.6,69.8,94,29.72,2.0,SSW,10.4,24.2,0.04,Rain,Heavy Rain,200,2012-10-01 16:02:00
11:10 AM,71.6,69.8,94,29.72,6.0,SSW,15.0,21.9,0.05,Rain,Rain,200,2012-10-01 16:10:00
11:53 AM,75.0,71.1,87,29.70,10.0,South,15.0,21.9,0.07,,Overcast,170,2012-10-01 16:53:00
1:12 PM,75.2,73.4,94,29.68,10.0,SSE,10.4,-,0.00,,Overcast,160,2012-10-01 18:12:00
1:31 PM,75.2,73.4,94,29.68,10.0,SSE,12.7,-,0.00,Rain,Light Rain,160,2012-10-01 18:31:00
1:53 PM,75.9,73.0,91,29.65,10.0,SE,9.2,-,0.00,,Overcast,140,2012-10-01 18:53:00
2:53 PM,75.9,73.0,91,29.65,7.0,SSE,11.5,-,0.01,Rain,Light Rain,150,2012-10-01 19:53:00
3:11 PM,75.2,73.4,94,29.66,5.0,SE,9.2,-,0.01,Rain,Light Rain,140,2012-10-01 20:11:00
3:28 PM,75.2,73.4,94,29.65,5.0,SSE,11.5,-,0.03,Rain,Light Rain,150,2012-10-01 20:28:00
3:42 PM,75.2,73.4,94,29.65,10.0,South,13.8,-,0.03,Rain,Light Rain,190,2012-10-01 20:42:00
3:53 PM,75.9,73.0,91,29.64,10.0,SSW,13.8,-,0.03,Rain,Light Rain,200,2012-10-01 20:53:00
4:53 PM,75.9,73.9,94,29.64,10.0,SSW,9.2,-,0.01,Rain,Light Rain,210,2012-10-01 21:53:00
5:53 PM,75.9,73.0,91,29.65,10.0,South,8.1,-,0.00,,Overcast,190,2012-10-01 22:53:00
6:53 PM,75.0,71.1,87,29.66,10.0,SSW,8.1,-,0.00,,Mostly Cloudy,200,2012-10-01 23:53:00
7:53 PM,73.9,70.0,87,29.68,10.0,SSW,10.4,-,N/A,,Overcast,210,2012-10-02 00:53:00
8:53 PM,72.0,69.1,91,29.71,10.0,SSW,5.8,-,0.00,,Mostly Cloudy,210,2012-10-02 01:53:00
9:53 PM,72.0,69.1,91,29.72,10.0,SW,5.8,-,N/A,,Mostly Cloudy,230,2012-10-02 02:53:00
10:53 PM,72.0,66.9,84,29.73,10.0,SW,5.8,-,N/A,,Overcast,230,2012-10-02 03:53:00
11:07 PM,71.6,66.2,83,29.75,10.0,SW,4.6,-,N/A,,Overcast,230,2012-10-02 04:07:00
11:26 PM,71.6,66.2,83,29.75,10.0,SSW,8.1,-,N/A,,Overcast,210,2012-10-02 04:26:00
11:53 PM,71.1,66.0,84,29.73,10.0,SSW,5.8,-,N/A,,Overcast,210,2012-10-02 04:53:00